Other Public Products
Issued by NWS Grand Forks, ND

Home | Current Version | Previous Version | Text Only | Print | Product List | Glossary Off
Versions: 1 2 3 4 5 6 7 8 9 10 11 12 13 14 15 16 17 18 19 20 21 22 23 24 25 26 27 28 29 30 31 32 33 34 35 36 37 38 39 40 41 42 43 44 45 46 47 48 49 50

000
FPUS83 KFGF 290310
OPUFGF
PRAIRIE TO PINES WEATHER ROUNDUP
NATIONAL WEATHER SERVICE EASTERN NORTH DAKOTA/GRAND FORKS ND
900 PM CST SUN DEC 28 2014

 **SATELLITE DATA USED TO AUGMENT SKY COVER AT AUTOMATED STATIONS**
 *****  WEATHER ACROSS EASTERN NORTH DAKOTA  *****

CITY           SKY/WX    TMP DP  RH WIND       PRES   REMARKS
GRAND FORKS    CLEAR     -9 -13  83 N5        30.47R WCI -20
GRAND FORKS AF FAIR      -7 -11  81 N7        30.47R WCI -21
GRAND CITY NWS   N/A     -6 N/A N/A N1          N/A
BUXTON         NOT AVBL
DEVILS LAKE    PTCLDY    -8 -15  71 CALM      30.40R
FARGO          CLEAR     -2  -9  72 N10       30.45R WCI -19
WAHPETON ARPT  PTCLDY     1  -4  78 N14       30.41R WCI -17
$$

 *****  WEATHER ACROSS CENTRAL AND WESTERN NORTH DAKOTA  *****

CITY           SKY/WX    TMP DP  RH WIND       PRES   REMARKS
JAMESTOWN      CLOUDY    -2  -7  79 N8        30.39R WCI -17
BISMARCK       CLOUDY     2  -3  80 NE10      30.39R WCI -14
MINOT          PTCLDY    -8 -13  78 NW9       30.42R WCI -25
MINOT AFB      PTCLDY    -9 -13  82 NW7       30.43R WCI -24
GARRISON         N/A      0  -4  83 NE9       30.37R WCI -15
WILLISTON      CLOUDY     3  -3  76 N15       30.41R WCI -16
DICKINSON      LGT SNOW   7   1  76 NE14      30.26R WCI -10
HETTINGER      LGT SNOW   9   5  84 NE14      30.23R FOG     WCI  -7
$$

 *****  OTHER OBSERVATIONS NORTHEAST NORTH DAKOTA  *****

CITY           SKY/WX    TMP DP  RH WIND       PRES   REMARKS
WALHALLA         N/A     -8 -11  84 NW7       30.49R WCI -22
LANGDON        FAIR     -11 -17  77 N8        30.39R WCI -28
CAVALIER       FAIR      -4  -9  77 N12       30.48R WCI -22
GRAFTON        NOT AVBL
CANDO          FAIR      -8 N/A N/A N7        30.43R WCI -22
FORT TOTTEN    NOT AVBL
ROLLA          FAIR      -9 -13  84 N13       30.39R WCI -30
RUGBY          FAIR      -8 -11  84 NW3       30.42R
 ***** THE ABOVE OBSERVATIONS ARE NON NWS ARE NOT QUALITY
        CONTROLLED AND MAY MIS-REPORT RAIN FOR SNOW...
$$

 *****  OTHER OBSERVATIONS SOUTHEAST NORTH DAKOTA *****

CITY           SKY/WX    TMP DP  RH WIND       PRES   REMARKS
COOPERSTOWN    NOT AVBL
VALLEY CITY    FAIR      -2  -6  84 N6        30.40R WCI -14
OAKES            N/A      0  -2  92 N13       30.38R WCI -18
GWINNER        CLEAR      1  -4  78 NE14      30.40R WCI -17
SHEYENNE NWR     N/A     -2  -9  72 N8        29.95S WCI -17
BUFFALO        NOT AVBL
WYNDMERE         N/A      0  -8  71 VRB10       N/A  WCI -17
 ***** THE ABOVE OBSERVATIONS ARE NON NWS ARE NOT QUALITY
       CONTROLLED AND MAY MIS-REPORT RAIN FOR SNOW...
$$

  *****  WEATHER ACROSS NORTHERN MINNESOTA  *****

CITY           SKY/WX    TMP DP  RH WIND       PRES   REMARKS
FLAG ISLAND    CLEAR    -11 -17  77 NW18      30.38R WCI -36
WARROAD        CLEAR     -9 -17  70 NW7       30.40R WCI -24
ROSEAU         PTCLDY    -8 -15  71 NW5       30.42R WCI -19
HALLOCK        PTCLDY    -9 -15  77 NW3       30.47R
THF RVR FALLS  PTCLDY    -8 -11  84 NW9       30.41R WCI -25
HALSTAD          N/A     -5 -11  73 N9          N/A  WCI -21
FOSSTON        CLEAR     -9 -15  77 CALM      30.39R
BAUDETTE       CLEAR     -6 -13  71 NW10      30.36R WCI -24
WASKISH        CLEAR     -2  -8  78 W9        30.37R WCI -18
CROOKSTON      PTCLDY    -8 -11  84 N7        30.46R WCI -22
$$
  *****  WEATHER ACROSS CENTRAL AND WEST MINNESOTA  *****

CITY           SKY/WX    TMP DP  RH WIND       PRES   REMARKS
BEMIDJI        CLEAR     -8 -12  82 NW5       30.34R WCI -19
PARK RAPIDS    CLEAR      0  -6  76 N6        30.32R WCI -12
WADENA         PTCLDY     3  -2  78 N8        30.32R WCI -10
DETROIT LAKES  PTCLDY     0  -4  85 N8        30.36R WCI -15
MOORHEAD       CLEAR     -2  -6  84 N10       30.44R WCI -19
FERGUS FALLS   PTCLDY     3  -6  66 N7        30.40R WCI  -9
ELBOW LAKE     FAIR       7   2  80 N6        30.33R WCI  -4
MORRIS MN      PTCLDY     9   5  85 N9        30.32R WCI  -5
STAPLES        CLEAR      3  -2  78 N6        30.32R WCI  -8
WHEATON        PTCLDY     1  -2  85 N13       30.39R WCI -16
$$
  *****  WEATHER ELSEWHERE ACROSS MINNESOTA  *****

CITY           SKY/WX    TMP DP  RH WIND       PRES   REMARKS
DULUTH         CLEAR      3  -6  66 NW9       30.26R WCI -12
INTRNTL FALLS  CLEAR     -8 -13  78 NW5       30.34R WCI -19
ELY            CLEAR     -6 -11  77 W3        30.28R
CLOQUET        CLEAR      1  -6  71 NW6       30.29R WCI -10
BRAINERD       CLEAR      5  -2  72 N8        30.32R WCI  -8
HIBBING        FAIR       0  -9  65 N7        30.30R WCI -13
ALEXANDRIA     PTCLDY    10   0  63 N9        30.30R WCI  -3
SAINT CLOUD    CLEAR     12   1  61 N7        30.31R WCI   1
MINNEAPOLIS    PTCLDY    14   4  64 NE7       30.31R WCI   4
$$

  *****  WEATHER ACROSS SOUTH DAKOTA  *****

CITY           SKY/WX    TMP DP  RH WIND       PRES   REMARKS
SIOUX FALLS    CLOUDY    19  14  81 NE13      30.24R WCI   6
BROOKINGS      NOT AVBL
WATERTOWN      CLOUDY     6   1  80 NE12      30.26R WCI  -9
HURON          LGT SNOW  15  11  83 NE7       30.30R FOG     WCI   5
SISSETON         N/A      3  -2  79 N15       30.37R WCI -16
ABERDEEN       CLOUDY     6  -2  69 NE14      30.35R WCI -11
MITCHELL       LGT SNOW  20  18  92 NE8       30.28R FOG     WCI  10
PIERRE         LGT SNOW  13   9  84 NE16      30.24R FOG     WCI  -3
MOBRIDGE       CLOUDY     9   2  73 NE7       30.29R WCI  -2
RAPID CITY     LGT SNOW  17  13  84 N8        30.10R FOG     WCI   7
$$

  *****  SOME WEATHER IN NEARBY STATES *****

CITY           SKY/WX    TMP DP  RH WIND       PRES   REMARKS
GLASGOW MT     CLOUDY     7  -3  64 NE12      30.40R WCI  -8
GREAT FALLS MT LGT SNOW   9   6  88 N15       30.31R FOG     WCI  -8
CHEYENNE WY    CLOUDY    22   9  57 NW6       29.88R WCI  14
SCOTTSBLUFF NE CLOUDY    20  14  77 NE6       29.96R WCI  12
OMAHA NE       CLOUDY    26  21  81 N9        30.20R WCI  17
DES MOINES IA  CLOUDY    31  22  69 NE7       30.20R WCI  24
DAVENPORT IA   PTCLDY    23  17  78 NE5       30.23R WCI  17
CHICAGO IL     PTCLDY    25  17  72 W6        30.22R WCI  18
EAU CLAIRE WI  CLEAR      5   0  79 NE3       30.28R
LA CROSSE WI   CLEAR     15  11  83 NW5       30.28R WCI   8
$$

  *****  SOME NATIONAL WEATHER *****

CITY           SKY/WX    TMP DP  RH WIND       PRES   REMARKS
LA GUARDIA NY  CLOUDY    45  33  63 N15       30.03R
RALEIGH NC     FOG       55  54  94 CALM      30.08R VSB 1/4
ATLANTA GA     CLOUDY    61  57  88 N6        30.06S
NEW ORLEANS LA LGT RAIN  57  54  89 NW5       30.12R FOG
OKLAHOMA CITY  CLEAR     30  21  69 SE7       30.09S WCI  23
ALBUQUERQUE NM PTCLDY    25  13  60 E5        30.07F WCI  19
SALT LAKE CITY LGT SNOW  28  27  96 SE5       30.05F FOG     WCI  23
LOS ANGELES CA PTCLDY    55  44  66 W3        30.19S
BOISE ID       FOG       30  29  96 N6        30.08S VSB 1/2 WCI  24
SEATTLE WA     CLOUDY    40  36  86 E5        30.15S
$$

*** WEATHER ACROSS MANITOBA...SASKATCHEWAN AND ONTARIO ***
                ***ONTARIO***

CITY           SKY/WX    TMP DP  RH WIND       PRES   REMARKS
GERALDTON      CLEAR     -9 -15  77 W8        30.13R WCI -26
THUNDER BAY    CLEAR      0  -9  65 W9        30.30R WCI -16
SIOUX LOOKOUT  NOT AVBL
TORONTO        MOCLDY    30  23  74 W9        30.09S WCI  22
BIG TROUT LK   CLEAR    -20 -26  76 W14       30.13S WCI -44
PICKLE LAKE    NOT AVBL
DRYDEN         CLEAR    -15 -18  84 W8        30.28R WCI -32
KENORA         NOT AVBL
$$
                *** MANITOBA***

CITY           SKY/WX    TMP DP  RH WIND       PRES   REMARKS
BRANDON        CLEAR    -17 -22  76 N10       30.47R WCI -37
DAUPHIN        CLEAR    -22 -27  76 W8        30.55R WCI -41
ISLAND LAKE    PTCLDY   -20 -29  63 W10       30.33R WCI -41
PILOT MOUND      N/A    -18 -22  83 N5          N/A  WCI -31
THE PAS        CLEAR    -20 -26  76 NW13      30.58R WCI -43
THOMPSON       CLEAR    -18 -24  76 NW8       30.41R WCI -37
WINNIPEG       CLEAR    -15 -22  70 N12       30.51R WCI -36
CHURCHILL      CLEAR    -11 -17  77 NW25G32   30.25R BLWGSNOWWCI -39
GILLAM         CLEAR    -18 -24  76 NW12G17   30.28S WCI -40
$$
                ***SASKATCHEWAN***

CITY           SKY/WX    TMP DP  RH WIND       PRES   REMARKS
ESTEVAN        PTCLDY    -9 -15  77 N9        30.44R WCI -27
KINDERSLEY     MOCLDY   -15 -20  76 N6        30.54R WCI -29
LLOYDMINSTER   CLOUDY    -9 -15  77 NW7       30.56R WCI -24
PRINCE ALBERT  NOT AVBL
REGINA         NOT AVBL
YORKTON        CLEAR    -18 -24  76 NW10      30.51R WCI -39


USA.gov is the U.S. government's official web portal to all federal, state and local government web resources and services.